User: anonymous   Login
Location: Campos dos Goitacazes
(21.7500°S, 41.3000°W)
Time: 14:20:17
(UTC-03:00)
Language:

Tiangong - Orbit

View from above orbital plane
View from above orbital plane
View from above satellite
View from above satellite

Ground track
Ground track

The orbit data is extracted from the following two-line orbital elements,

1 48274U 21035A   24193.31958869  .00029056  00000-0  30305-3 0  9990
2 48274  41.4694 295.7925 0003875  14.7174 345.3778 15.63863080182874
Epoch (UTC): 11 July 2024 07:40:12
Eccentricity: 0.0003875
inclination: 41.4694°
perigee height: 374 km
apogee height: 379 km
right ascension of ascending node: 295.7925°
argument of perigee: 14.7174°
revolutions per day: 15.63863080
mean anomaly at epoch: 345.3778°
orbit number at epoch: 18287

The dashed part of the orbit path shows where the satellite is in the earth's shadow,  

DLR